TimeCST,TemperatureF,Dew PointF,Humidity,Sea Level PressureIn,VisibilityMPH,Wind Direction,Wind SpeedMPH,Gust SpeedMPH,PrecipitationIn,Events,Conditions,WindDirDegrees,DateUTC
12:53 AM,35.1,34.0,96,30.23,10.0,Calm,Calm,-,N/A,,Clear,0,2012-11-21 06:53:00
1:53 AM,34.0,34.0,100,30.23,10.0,Calm,Calm,-,N/A,,Clear,0,2012-11-21 07:53:00
2:53 AM,34.0,34.0,100,30.25,10.0,Calm,Calm,-,N/A,,Clear,0,2012-11-21 08:53:00
3:53 AM,32.0,32.0,100,30.24,10.0,Calm,Calm,-,N/A,,Clear,0,2012-11-21 09:53:00
4:53 AM,30.0,30.0,100,30.24,9.0,Calm,Calm,-,N/A,,Clear,0,2012-11-21 10:53:00
5:53 AM,30.9,30.9,100,30.25,10.0,Calm,Calm,-,N/A,,Clear,0,2012-11-21 11:53:00
6:53 AM,30.9,30.9,100,30.26,7.0,Calm,Calm,-,N/A,,Clear,0,2012-11-21 12:53:00
7:53 AM,34.0,33.1,96,30.27,9.0,Calm,Calm,-,N/A,,Clear,0,2012-11-21 13:53:00
8:53 AM,44.1,41.0,89,30.27,10.0,Calm,Calm,-,N/A,,Clear,0,2012-11-21 14:53:00
10:53 AM,66.0,45.0,47,30.24,10.0,South,5.8,-,N/A,,Clear,170,2012-11-21 16:53:00
11:53 AM,71.1,39.9,32,30.20,10.0,SSE,9.2,-,N/A,,Clear,160,2012-11-21 17:53:00
12:53 PM,73.9,39.9,29,30.16,10.0,SSE,10.4,-,N/A,,Clear,160,2012-11-21 18:53:00
1:53 PM,75.9,37.9,25,30.13,10.0,South,10.4,17.3,N/A,,Clear,180,2012-11-21 19:53:00
2:53 PM,75.9,37.9,25,30.10,10.0,SSE,10.4,16.1,N/A,,Clear,160,2012-11-21 20:53:00
3:53 PM,75.0,32.0,21,30.09,10.0,South,11.5,20.7,N/A,,Clear,180,2012-11-21 21:53:00
4:53 PM,70.0,32.0,25,30.08,10.0,SSW,6.9,-,N/A,,Clear,200,2012-11-21 22:53:00
5:53 PM,64.0,33.1,31,30.08,10.0,South,3.5,-,N/A,,Clear,180,2012-11-21 23:53:00
6:53 PM,64.0,34.0,33,30.08,10.0,SSW,6.9,-,N/A,,Clear,200,2012-11-22 00:53:00
7:53 PM,57.9,35.1,42,30.08,10.0,South,6.9,-,N/A,,Clear,170,2012-11-22 01:53:00
8:53 PM,54.0,36.0,51,30.07,10.0,SSE,5.8,-,N/A,,Clear,160,2012-11-22 02:53:00
9:53 PM,51.1,37.0,59,30.06,10.0,SSE,6.9,-,N/A,,Clear,150,2012-11-22 03:53:00
10:53 PM,51.1,37.9,61,30.04,10.0,SE,6.9,-,N/A,,Clear,140,2012-11-22 04:53:00
11:53 PM,55.0,39.0,55,30.02,10.0,SSE,6.9,-,N/A,,Clear,150,2012-11-22 05:53:00